Wind_Speed
20 20 20 18 18 18 18 19 20 19 19 20 20 19 19 18 17 17 17 17 17 17 16 15 14 15 15 15 14 12 12 12 9 8 12 15 12 9 9 9 9 9 8 9 10 10 10 11 12 11 11 10 9 10 10 9 8 7 6 5 4 4 3 2 2 3 3 4 4 4 4 3 3 3 2 2 2 2 2 2 1 1 1 0 1
20 21 21 19 19 19 19 20 19 20 20 20 20 21 21 19 18 18 18 17 18 18 17 16 15 15 15 15 14 13 13 13 11 7 9 14 13 10 9 9 9 9 9 9 10 11 11 11 12 11 10 9 8 9 9 8 7 6 5 4 3 2 2 1 2 2 3 3 2 2 2 2 3 2 2 2 1 1 1 1 0 1 1 2 3
21 21 20 19 19 18 19 20 20 20 20 19 19 20 22 22 21 20 19 19 19 19 18 17 16 15 15 15 14 14 14 13 13 9 8 12 14 11 9 9 9 9 9 9 10 10 11 11 11 10 9 8 8 8 8 7 6 5 3 2 2 1 1 1 1 2 2 2 2 1 1 1 2 1 1 1 1 1 1 1 1 2 2 3 4
21 19 19 19 19 19 19 19 20 20 20 20 21 20 21 22 23 22 21 21 20 19 19 19 17 16 15 15 15 15 15 14 13 12 9 9 12 12 9 9 9 8 8 9 10 9 10 11 11 10 8 8 7 7 7 6 5 4 2 2 1 1 0 0 1 1 2 1 1 1 0 1 1 1 2 2 2 2 2 2 2 3 3 4 4
22 20 18 18 19 20 20 19 20 20 21 23 24 24 21 20 23 24 23 22 21 20 20 20 18 17 16 16 15 15 16 15 13 13 11 8 10 11 10 9 8 8 8 9 9 9 9 10 10 9 8 6 6 6 6 5 5 3 2 1 1 0 0 0 1 1 1 0 0 0 1 2 2 3 3 3 3 2 2 2 2 3 3 4 5
23 21 19 18 18 20 21 20 20 20 20 23 25 26 24 21 21 24 25 23 22 21 20 21 20 17 17 16 16 16 16 15 14 13 12 10 9 9 10 10 8 7 8 9 9 9 9 9 9 9 7 6 5 5 5 5 4 4 3 2 2 2 1 1 1 1 0 1 1 1 2 3 4 4 3 3 3 3 3 3 3 4 5 5 5
26 23 21 20 20 21 21 20 20 19 19 21 23 24 25 24 22 24 25 25 24 22 20 21 20 18 18 16 16 17 16 15 14 13 13 12 11 9 9 9 8 7 8 8 9 9 8 8 9 8 7 6 5 5 4 4 4 4 4 3 2 2 1 1 1 1 1 2 2 3 3 3 4 4 3 3 4 4 5 5 5 5 6 6 5
25 24 23 22 22 22 21 20 19 20 20 21 23 24 25 27 26 25 24 26 25 23 21 21 20 19 19 17 17 17 16 15 14 13 13 12 12 10 8 8 8 8 8 8 8 9 8 7 8 8 7 6 6 5 4 4 3 3 3 2 1 1 1 0 0 1 2 3 3 3 2 3 3 4 4 4 5 5 6 6 6 5 5 4 4
24 25 26 25 24 24 23 22 20 20 21 23 25 25 27 30 30 26 24 25 25 22 22 22 21 20 20 18 17 18 16 15 14 13 12 12 12 11 9 7 7 7 9 9 8 8 7 7 7 7 7 6 6 4 4 3 2 2 1 1 1 1 1 1 1 1 2 2 3 2 2 3 3 4 5 5 5 5 5 5 4 4 4 4 3
25 26 28 28 28 27 26 26 24 23 23 24 26 27 29 30 30 27 25 24 24 23 22 22 21 21 20 19 18 18 17 15 14 13 12 12 12 11 9 8 7 6 8 8 8 7 7 6 6 6 6 6 5 4 3 3 2 2 1 0 0 0 1 1 1 1 2 2 2 2 3 3 4 4 4 4 4 4 4 4 4 4 4 4 4
25 26 28 30 29 28 28 29 28 26 25 25 26 27 29 29 28 27 26 25 25 25 23 23 22 20 20 20 20 19 17 16 15 13 12 12 12 11 10 9 8 7 7 7 7 6 6 6 5 5 5 5 4 4 3 3 2 1 0 0 0 1 1 1 1 1 2 2 2 3 3 4 4 3 3 3 3 3 4 4 4 4 4 4 4
25 26 29 30 30 28 28 29 29 28 27 26 26 28 30 30 28 27 27 25 26 26 25 24 22 20 19 21 21 20 18 16 15 13 13 13 12 11 10 9 9 8 7 7 6 6 5 5 4 4 4 4 4 4 3 3 2 1 0 1 1 1 1 1 1 2 2 3 3 4 4 4 3 2 2 2 2 2 3 3 3 3 3 3 2
23 26 28 29 29 28 27 28 29 29 29 28 28 29 30 30 29 27 27 25 26 28 27 25 23 20 20 22 22 21 19 17 15 14 13 13 12 11 10 10 10 9 8 7 6 6 6 5 5 4 3 3 3 4 3 3 2 1 1 1 1 2 2 2 2 3 3 4 4 4 4 4 3 3 3 2 2 2 2 2 2 2 2 1 1
22 24 27 28 29 29 28 27 28 28 28 28 29 30 30 30 30 29 27 25 26 29 29 25 22 20 20 21 22 22 20 18 16 15 14 13 13 12 11 10 10 9 9 7 6 6 6 6 5 4 3 3 3 3 4 3 2 1 1 1 2 2 2 3 3 4 4 4 5 5 4 4 4 4 3 3 2 1 1 1 1 1 1 1 1
23 25 27 29 28 29 28 28 28 28 28 28 29 30 30 31 31 30 28 26 26 29 29 25 23 22 21 21 22 22 20 19 18 16 14 13 13 13 11 11 10 9 9 8 7 7 7 6 6 5 4 3 3 3 3 3 2 1 2 2 2 3 3 3 4 5 5 5 5 5 5 5 5 4 4 3 3 2 2 2 2 2 2 2 2
24 25 27 29 29 28 28 27 28 28 28 28 28 29 30 31 31 32 30 27 27 28 29 25 24 24 23 23 23 21 20 20 19 17 15 14 14 12 11 11 11 10 9 8 7 8 7 7 6 5 5 4 3 4 3 3 2 2 3 3 2 3 3 4 5 5 6 6 6 6 6 6 5 5 4 4 4 3 3 3 3 3 2 3 3
25 26 26 28 29 28 26 26 27 27 28 27 27 29 30 31 32 33 32 29 28 27 28 25 24 24 24 24 23 21 21 20 19 17 16 15 14 13 12 11 11 10 9 8 8 8 8 7 7 6 7 6 5 4 4 4 3 3 4 3 3 3 4 4 5 5 6 6 6 6 6 6 5 5 4 4 4 4 3 3 3 3 3 3 4
26 27 28 29 29 28 26 26 27 27 27 27 27 28 30 31 33 35 35 32 29 27 27 26 23 24 24 24 23 22 21 20 19 18 17 16 14 13 13 12 12 11 10 9 9 9 8 8 7 8 8 7 6 6 5 5 4 4 4 4 4 4 4 5 5 5 6 6 6 6 6 6 6 5 4 4 4 4 3 3 3 3 3 3 4
28 29 29 30 30 30 28 26 26 26 26 26 27 28 29 30 33 36 36 34 30 27 27 27 24 25 25 23 23 23 22 21 20 19 18 17 15 14 13 13 13 12 11 10 10 9 8 8 8 9 9 8 7 7 6 5 5 4 4 5 5 5 5 6 6 6 6 6 6 7 7 6 6 5 5 4 4 3 3 3 3 3 3 4 3
30 30 30 31 31 31 30 28 27 26 25 25 27 28 28 28 33 35 34 32 31 27 27 27 24 26 25 23 24 25 23 22 21 20 19 17 17 15 14 14 13 12 11 11 11 10 9 9 9 9 10 8 8 8 7 6 6 5 5 5 6 6 6 6 6 6 6 7 7 7 7 7 7 6 5 5 4 4 3 3 3 4 4 4 4
31 31 31 32 33 33 32 31 30 28 26 26 27 27 27 27 30 31 29 29 30 28 27 26 24 25 25 24 26 26 24 23 23 22 20 19 19 17 15 14 13 13 12 12 12 11 11 10 10 10 10 9 9 9 8 7 7 6 6 6 7 7 8 8 7 7 7 8 8 8 8 8 8 7 6 5 5 4 4 4 4 4 5 5 5
31 33 33 33 33 33 32 33 33 31 29 28 27 26 26 26 26 25 25 26 27 27 27 27 26 26 26 25 27 28 26 24 24 23 22 21 20 18 16 15 14 13 13 13 13 12 11 11 11 11 11 10 10 10 9 8 8 8 8 8 8 8 9 9 9 9 9 10 10 9 9 9 9 8 7 6 6 6 6 5 5 5 6 6 6
32 33 34 34 35 34 33 33 34 34 31 30 28 26 25 25 24 24 25 25 24 25 27 27 27 28 28 27 28 29 27 24 24 23 23 22 21 19 18 16 14 14 14 14 14 13 12 12 12 12 11 11 10 10 10 9 9 9 10 9 9 10 10 10 10 10 10 11 11 11 11 10 10 9 8 8 7 7 7 7 7 7 7 7 7
33 34 35 36 36 35 35 35 34 34 33 31 29 26 25 25 25 24 24 23 22 24 25 27 28 27 27 28 28 28 26 25 24 23 23 22 21 20 18 16 16 15 15 15 15 14 14 13 13 12 12 12 11 10 11 10 10 11 11 11 11 11 11 12 12 12 11 12 12 12 12 12 11 10 10 9 9 8 8 8 8 8 8 8 8
36 36 37 37 36 35 36 36 34 32 31 31 29 27 25 25 25 24 23 21 22 24 24 26 26 25 26 27 27 27 26 25 24 23 24 23 21 20 18 17 17 16 16 16 15 15 15 14 14 13 13 13 12 11 12 11 12 12 12 12 12 12 13 13 13 13 13 12 13 14 14 13 13 12 11 10 10 10 10 9 9 9 9 9 9
36 38 38 37 37 36 36 36 35 32 31 29 28 27 26 25 24 23 22 20 22 24 24 25 25 24 26 27 27 28 28 26 24 24 24 23 22 21 19 18 18 18 19 17 16 16 15 15 15 14 14 14 13 13 13 13 13 13 13 14 14 14 14 14 14 14 14 13 13 14 15 15 14 14 13 12 11 11 11 11 10 10 10 10 10
35 37 39 37 36 36 36 36 35 33 30 28 26 26 26 26 25 23 21 20 21 24 24 25 25 24 26 28 28 29 28 26 25 25 25 25 24 23 21 20 19 20 20 18 17 17 17 16 16 15 15 15 14 14 15 15 14 14 14 15 15 15 16 16 16 16 15 15 15 15 16 17 16 16 15 13 13 12 12 12 12 11 11 11 12
34 36 38 37 35 35 35 34 34 32 29 26 25 25 26 26 25 23 21 20 21 24 25 25 25 23 24 26 27 27 27 26 26 26 26 25 26 25 22 21 20 21 20 19 18 18 18 17 17 17 17 17 15 15 16 17 15 15 15 15 16 16 17 17 17 17 17 16 16 16 17 18 18 18 17 15 15 14 14 14 13 13 13 13 13
35 35 36 37 36 34 34 34 33 31 30 28 26 25 26 26 25 24 23 22 21 24 25 25 25 24 23 24 25 26 26 26 26 26 26 27 27 26 24 22 21 21 21 20 20 19 18 18 18 18 18 18 17 16 17 18 16 16 16 16 16 17 18 18 18 18 18 18 18 17 18 19 20 20 19 18 17 16 16 15 15 15 14 14 14
34 34 35 36 36 34 33 34 32 31 31 28 26 26 26 26 26 25 25 24 23 25 26 27 27 27 26 25 26 26 26 27 27 27 28 28 28 27 26 23 21 21 23 22 21 20 19 19 19 19 19 19 18 17 18 19 17 16 17 17 17 17 18 19 19 19 19 19 19 19 19 19 21 22 21 20 19 18 18 17 17 16 16 16 16
32 33 33 33 34 34 33 34 32 31 31 29 27 27 26 24 25 25 25 24 25 26 28 28 28 29 29 28 28 28 28 28 29 29 29 28 28 28 27 25 23 23 24 23 22 21 20 20 20 20 20 20 19 17 18 19 18 17 17 18 17 18 19 19 19 20 20 21 21 20 20 20 22 23 23 23 21 20 19 19 18 18 17 17 17
31 32 32 32 33 33 33 34 32 31 31 29 28 29 26 24 25 26 26 25 25 27 28 29 29 30 30 30 29 29 29 29 29 29 29 30 30 28 28 28 27 25 24 23 23 22 21 22 21 21 21 20 19 18 18 20 20 18 17 19 18 18 19 20 20 20 21 22 22 21 21 21 22 24 25 25 24 22 21 21 20 20 19 19 19
31 31 32 31 32 32 33 34 32 31 31 30 30 31 30 28 27 26 26 26 26 26 27 28 30 31 31 30 30 29 30 30 29 28 29 31 31 30 30 31 29 26 24 24 24 23 22 23 22 21 21 20 20 20 19 21 22 20 18 20 19 18 19 19 20 21 21 22 22 22 22 22 23 24 25 26 26 25 24 23 22 21 21 20 20
31 32 32 31 31 32 33 34 33 31 31 30 30 32 32 31 30 28 27 27 27 26 27 28 29 31 31 31 30 30 30 31 30 30 31 33 33 31 31 31 30 26 25 24 24 24 24 24 22 20 21 21 22 22 20 22 24 21 19 21 21 19 19 20 20 21 22 22 23 23 23 23 23 24 26 27 27 26 25 25 24 23 22 22 22
32 32 33 32 31 32 33 34 34 33 33 32 31 31 32 31 31 30 29 28 28 28 27 28 30 31 32 32 31 31 32 33 33 33 33 34 34 32 31 31 30 27 26 26 25 25 26 25 23 21 22 23 24 23 21 23 25 23 20 22 22 20 19 20 20 22 23 23 23 24 24 24 24 25 26 27 28 28 27 26 26 25 25 24 25
33 33 33 33 32 31 32 33 34 34 34 34 32 31 32 32 31 30 28 29 29 28 28 29 31 32 32 32 32 33 34 35 34 34 34 34 34 33 33 32 30 29 28 28 27 27 27 26 25 23 23 23 24 24 24 24 26 25 22 22 23 20 20 21 21 22 23 23 24 24 24 25 25 25 26 27 28 29 29 28 28 27 27 26 27
33 33 33 33 32 31 31 31 32 33 34 33 33 31 31 33 34 33 31 29 29 29 29 30 31 32 32 32 32 34 35 35 35 34 34 35 35 34 35 33 30 30 31 31 29 29 28 27 26 25 24 24 24 24 24 24 25 25 22 22 23 22 21 21 21 22 23 23 24 25 25 25 26 26 27 27 29 30 30 30 29 29 28 28 28
34 34 34 33 32 32 31 31 30 30 31 32 32 32 32 33 33 34 35 33 30 30 31 31 31 31 32 32 32 32 34 36 36 34 34 36 36 36 36 34 32 32 34 32 30 29 28 27 27 26 25 25 24 23 24 26 26 26 24 23 23 22 22 21 21 23 24 24 24 25 25 26 26 27 27 28 29 30 31 31 30 30 30 30 30
35 34 34 33 32 32 32 31 29 28 29 31 32 32 34 34 32 32 34 34 32 31 31 32 32 31 30 31 31 31 33 36 37 35 35 36 36 35 35 35 35 36 35 32 30 30 29 28 28 28 26 25 25 23 24 27 29 27 25 24 24 24 24 23 22 23 25 25 25 26 26 26 27 27 28 28 29 30 31 31 31 32 32 32 32
37 36 35 34 33 32 32 32 30 28 27 29 31 32 33 35 33 31 33 34 33 32 31 31 32 32 31 30 31 32 33 35 36 35 34 35 36 35 37 38 38 36 34 33 32 32 31 30 30 30 28 28 27 25 24 27 30 28 26 26 27 26 25 24 23 24 26 26 26 26 27 27 27 28 28 28 29 30 30 30 32 33 33 33 33
38 37 37 36 35 33 33 32 31 29 27 27 28 30 31 33 33 32 34 35 34 33 33 32 31 33 33 32 31 33 34 35 36 36 36 36 37 38 40 41 39 36 34 34 34 33 32 32 32 31 30 30 30 28 26 28 32 32 29 28 28 27 25 25 25 25 26 27 26 27 27 27 27 28 28 29 29 29 29 30 32 33 34 35 35
39 39 38 38 37 35 33 32 31 30 28 27 26 27 29 30 31 32 34 36 35 34 34 33 32 32 33 33 32 33 34 36 37 38 38 37 38 39 41 41 40 38 37 36 35 34 33 33 32 31 31 32 32 31 28 27 31 33 29 27 28 28 26 26 27 27 27 27 27 27 27 27 27 28 28 29 29 29 29 31 33 34 35 35 35
40 39 39 39 39 37 34 33 31 30 29 28 27 26 27 28 29 30 31 33 33 33 34 34 33 32 33 34 34 34 35 36 37 38 38 38 39 40 42 42 41 40 39 38 37 35 34 33 33 31 31 33 35 33 30 29 32 34 30 28 29 30 29 28 29 28 27 28 29 28 27 26 27 28 28 29 29 28 30 33 34 35 36 36 36
41 40 40 40 40 39 36 34 33 31 29 28 28 27 26 27 28 28 27 28 29 31 33 34 33 32 33 34 34 35 36 37 36 36 38 40 41 42 42 43 43 41 41 40 37 36 35 35 34 32 32 33 35 34 32 32 34 34 32 30 29 29 29 29 30 29 28 28 29 28 27 27 28 29 29 28 28 29 31 34 35 36 37 37 37
42 41 40 39 39 40 38 36 34 34 32 29 29 28 26 26 27 27 26 26 27 29 30 31 32 31 31 32 33 35 36 37 37 36 36 39 43 43 42 43 43 42 41 40 38 38 37 35 34 34 33 34 34 34 33 33 33 33 32 30 29 29 30 30 29 28 28 29 29 28 27 29 30 31 30 29 29 31 32 34 37 39 39 38 39
43 42 40 39 38 39 40 38 36 35 35 32 30 30 28 27 27 27 26 26 26 27 28 29 30 30 30 31 32 34 36 37 37 36 35 37 41 42 40 40 42 43 42 41 40 40 39 36 35 35 34 34 34 33 32 32 32 32 31 30 29 31 32 30 28 28 28 31 31 29 29 31 32 31 30 30 31 33 33 34 38 40 39 38 39
43 43 43 41 39 39 41 41 38 37 36 35 33 31 30 29 28 28 27 26 26 27 26 28 29 29 30 31 31 32 36 36 35 35 36 36 37 38 38 39 41 41 42 41 41 41 41 40 38 36 35 35 36 35 35 34 33 32 31 31 31 32 32 31 31 30 30 31 30 30 32 35 34 32 32 34 35 35 34 34 35 35 36 38 39
44 44 44 43 42 41 41 42 41 38 37 37 35 33 32 31 30 30 29 27 27 27 27 28 29 29 31 32 31 31 34 35 34 34 35 35 35 36 38 40 40 40 42 43 43 43 43 42 40 37 37 37 37 37 37 36 35 34 33 32 31 29 30 33 34 34 33 32 31 33 35 37 36 35 36 37 37 35 34 34 35 37 39 40 40
44 44 44 44 43 42 41 42 42 40 38 37 36 35 33 32 32 32 31 30 29 28 28 28 28 29 31 33 32 31 31 33 34 35 36 37 38 39 39 41 41 41 43 44 44 45 45 42 39 38 38 39 38 37 37 36 35 35 34 34 31 29 33 38 40 38 37 36 35 35 36 36 37 38 38 37 35 34 35 37 40 42 43 42 42
48 47 47 47 46 45 44 43 43 41 40 38 38 36 35 34 34 33 33 32 31 30 30 29 28 29 31 33 33 32 31 31 32 34 36 38 40 40 40 40 41 43 44 45 45 45 44 42 39 36 36 37 37 36 37 37 37 37 37 36 34 34 37 42 44 43 41 40 38 36 36 37 37 38 38 36 35 35 38 41 43 45 46 45 45
52 52 51 51 50 49 48 46 45 45 43 41 39 38 37 35 35 35 34 34 33 32 31 31 30 31 32 34 34 33 32 32 32 33 35 35 36 38 39 38 39 40 42 42 42 41 42 42 41 39 37 36 36 36 37 38 38 38 38 38 38 39 40 41 42 42 40 39 38 36 36 37 38 39 39 38 37 38 41 44 45 47 48 46 45
Wind_Direction
302 304 307 309 307 304 297 292 289 288 289 288 286 284 283 284 285 288 292 296 298 297 297 299 302 303 303 303 305 306 304 302 305 314 308 303 306 308 305 309 313 316 320 321 320 323 330 333 328 323 322 321 322 321 317 311 302 295 292 292 291 290 289 293 306 320 331 333 335 340 341 343 349 354 353 347 342 339 334 326 320 321 321 97 123
305 305 307 310 307 302 295 292 288 285 286 285 285 286 286 287 287 287 292 295 297 297 295 297 300 299 299 298 299 299 299 299 298 302 299 297 303 308 306 308 315 319 320 322 321 325 334 336 329 324 323 325 328 330 326 318 307 297 289 285 284 281 282 296 319 332 336 336 341 352 349 354 0 359 6 5 355 9 14 15 51 99 108 109 114
304 305 308 308 306 304 299 296 291 288 288 281 279 287 289 289 288 287 290 292 296 297 293 296 298 296 297 294 292 293 293 295 294 295 293 293 298 302 303 308 316 319 317 320 322 328 337 339 333 325 322 325 331 335 334 325 313 303 293 285 273 262 277 310 336 338 332 336 356 8 1 15 21 12 31 47 59 82 92 104 109 111 112 114 117
301 305 309 309 307 307 304 300 296 294 292 282 276 285 292 289 288 288 289 291 296 294 288 294 297 294 295 290 287 288 288 290 292 294 293 291 294 296 298 302 309 314 313 317 322 329 338 342 337 329 322 323 333 339 339 333 323 315 304 291 271 226 193 320 337 322 314 341 12 12 33 69 73 69 76 88 100 107 113 120 118 116 120 121 120
298 304 308 308 309 309 308 305 303 300 296 288 281 285 293 291 288 289 290 289 294 290 285 292 296 292 290 286 282 282 284 287 290 292 291 286 284 288 292 295 302 309 312 318 321 325 335 344 340 333 328 328 336 342 343 340 332 325 314 305 302 296 301 296 294 277 296 10 102 150 121 113 107 104 103 105 110 117 128 140 134 129 127 125 123
299 304 305 306 309 308 307 307 308 307 301 293 288 288 292 294 292 292 291 288 291 288 283 288 292 289 286 282 278 277 280 284 286 288 290 288 278 277 284 291 303 310 311 317 319 319 328 341 343 337 334 335 339 341 342 340 331 319 310 309 313 311 306 295 271 251 211 145 159 145 128 122 117 113 112 112 112 120 129 134 130 124 124 122 123
301 305 305 307 309 305 304 308 311 312 308 299 294 291 290 290 290 292 291 289 286 282 281 286 288 287 284 279 273 273 276 279 281 282 285 286 281 275 275 285 300 306 308 313 315 316 322 335 340 336 335 337 339 338 337 335 327 314 304 306 309 311 312 299 272 209 167 155 148 138 128 119 114 113 112 109 107 112 118 120 117 114 116 117 122
303 310 310 309 308 305 305 308 311 313 312 304 298 294 290 287 288 289 288 286 281 277 281 286 287 284 279 276 271 270 274 275 275 277 281 282 280 278 274 278 293 302 307 312 313 314 320 330 334 334 336 339 340 338 338 336 332 320 307 303 309 331 1 9 139 173 169 156 143 135 126 110 108 109 107 104 104 108 111 112 112 111 113 115 118
310 313 314 311 309 309 307 305 307 307 308 306 302 298 294 292 291 288 285 282 277 275 282 285 285 283 278 275 271 269 272 272 270 272 276 277 275 275 275 275 284 295 304 309 312 314 319 328 332 336 339 343 346 346 345 344 347 345 326 320 338 6 72 103 150 172 165 156 147 133 117 108 106 105 102 101 102 106 108 109 108 106 105 102 100
308 310 311 310 310 311 307 305 304 303 304 305 304 301 298 298 295 288 285 282 272 269 279 285 285 283 278 275 271 269 270 270 268 269 271 271 270 270 272 275 278 286 295 300 307 315 320 326 334 339 344 352 355 354 357 357 4 7 356 84 107 175 126 130 184 188 169 168 157 131 119 115 111 106 102 101 100 103 105 104 101 99 96 91 89
304 307 308 307 308 309 307 306 304 303 304 304 304 304 304 304 300 293 288 283 272 266 272 280 280 277 273 273 272 267 267 267 264 266 268 266 265 267 271 275 277 282 289 291 298 313 321 326 337 343 350 359 359 0 10 14 18 25 33 162 195 194 167 160 199 212 190 181 163 136 129 128 123 116 110 106 103 106 106 103 102 101 97 93 90
302 304 304 305 305 306 306 305 304 304 304 303 302 304 306 305 301 297 292 285 275 267 266 268 269 269 268 269 270 265 264 265 263 264 265 263 262 262 266 269 273 281 287 288 295 307 313 321 330 340 355 0 358 1 10 21 27 35 219 262 251 215 210 190 204 218 202 184 162 147 146 150 146 139 136 127 122 119 113 108 105 103 97 95 98
299 302 305 307 306 303 301 302 304 303 302 302 301 302 304 303 300 297 291 283 276 267 262 262 263 262 262 265 266 263 263 263 261 262 262 261 261 258 260 263 271 280 284 287 295 299 302 307 314 325 343 351 348 348 352 4 11 354 232 248 242 228 225 200 198 207 200 184 168 162 168 173 171 168 163 150 147 139 119 109 102 101 103 116 131
299 301 305 308 306 301 298 298 300 300 300 300 300 301 301 301 301 297 289 283 278 266 260 262 262 258 260 264 264 262 262 262 259 259 257 256 256 255 258 261 267 275 279 286 291 293 298 298 300 308 320 334 332 329 333 335 331 301 260 253 234 223 218 200 192 195 193 186 180 185 196 196 188 188 184 181 183 177 154 140 134 140 150 155 154
300 299 300 303 304 301 297 295 296 296 298 299 298 300 301 301 301 297 289 284 280 267 257 258 258 255 260 262 259 257 258 260 259 257 255 252 250 252 255 258 264 269 273 281 287 291 295 291 294 301 309 322 315 307 312 312 304 292 294 284 244 219 209 204 195 191 191 193 198 206 211 207 201 203 205 205 202 198 196 192 182 178 174 172 169
302 299 299 301 303 302 297 295 294 294 296 297 298 299 300 301 300 298 292 284 279 265 251 252 255 253 256 257 255 253 254 256 257 256 254 248 247 250 252 256 262 264 267 273 279 285 290 292 298 303 305 310 303 290 289 284 271 281 297 286 253 232 217 211 205 200 200 203 212 217 216 215 215 218 216 212 210 209 212 212 204 197 193 189 187
300 299 299 299 302 303 299 295 294 294 295 296 296 298 299 300 300 301 296 285 276 263 247 247 251 249 251 254 251 248 250 254 255 256 252 245 246 247 247 253 259 261 264 266 268 275 283 292 297 298 299 301 298 290 281 274 265 271 284 277 257 241 229 224 220 215 214 216 221 223 222 223 227 225 217 216 220 220 219 219 214 212 208 201 196
297 298 298 297 298 300 300 296 294 295 296 296 295 295 297 301 302 302 298 286 274 263 247 243 246 244 244 249 248 244 247 251 252 253 252 249 247 245 245 251 254 257 261 262 263 268 276 284 287 289 290 291 294 291 284 276 264 258 265 266 257 244 240 237 232 230 229 230 232 232 230 229 229 223 216 221 226 225 227 230 229 223 213 203 197
296 296 296 297 296 296 297 296 295 295 296 297 295 294 297 302 303 302 298 285 273 263 247 241 245 244 241 246 247 244 246 248 248 249 250 250 247 243 244 248 250 252 255 258 260 262 268 275 278 282 283 284 285 282 277 272 262 253 252 253 250 245 243 239 237 240 243 245 243 239 236 234 229 221 218 224 227 227 232 238 238 228 211 202 196
296 295 295 296 296 295 294 293 293 294 297 298 297 297 298 300 302 302 297 283 272 263 247 240 245 243 239 243 244 243 244 245 246 247 248 248 246 243 242 245 247 248 249 254 257 257 259 264 269 273 275 274 272 270 269 267 260 250 243 242 241 241 240 237 239 247 254 256 250 242 238 235 230 223 220 226 230 232 236 239 237 227 214 207 208
298 297 296 297 298 297 294 292 291 290 293 298 300 300 298 299 303 304 297 283 270 260 247 238 238 239 237 239 240 240 241 242 243 245 246 247 247 244 242 245 246 247 248 251 255 255 255 257 261 265 267 265 263 265 265 263 259 251 245 240 237 238 237 239 245 254 261 262 254 244 237 234 231 226 223 226 231 235 238 238 234 226 220 218 223
300 299 299 299 301 301 298 294 292 290 289 291 297 301 299 299 303 303 298 288 270 253 242 234 232 235 238 238 238 239 239 239 240 242 244 245 244 243 242 243 245 248 250 249 252 255 253 252 255 259 262 260 259 262 263 262 260 255 252 245 239 238 238 242 250 258 264 264 256 245 236 233 233 230 227 225 228 233 236 235 231 231 233 236 238
302 302 302 301 301 303 303 301 296 292 289 288 290 296 299 297 295 294 295 289 268 246 235 231 230 233 237 238 238 238 239 238 237 239 243 244 243 242 241 243 245 248 249 249 251 254 254 252 253 257 260 259 257 258 259 260 260 258 256 252 246 242 241 244 252 260 264 263 255 245 236 233 232 232 231 229 229 233 234 233 232 236 243 249 251
305 304 304 304 302 301 302 303 302 296 292 289 288 290 294 295 292 292 292 284 263 244 234 231 231 234 238 239 236 236 238 239 238 238 240 243 244 241 241 243 246 248 249 249 251 252 254 254 255 258 260 260 258 256 258 260 260 260 259 257 253 248 246 247 253 260 264 262 255 245 238 234 232 233 234 234 234 235 236 236 236 239 245 251 256
306 305 303 303 304 302 299 299 303 303 298 291 288 288 289 292 293 291 289 277 256 244 237 234 234 236 239 241 238 237 238 239 239 238 238 242 243 240 239 241 246 250 246 246 250 253 255 256 256 257 258 260 259 257 259 260 261 262 261 259 256 252 250 250 253 259 264 263 256 248 242 236 234 234 235 238 238 239 240 240 241 244 248 252 257
305 304 303 303 304 304 302 298 296 300 302 295 288 288 287 289 291 289 286 275 253 242 239 237 236 239 243 244 240 237 238 238 238 240 240 241 243 240 236 236 242 248 246 245 249 252 254 254 254 256 257 259 259 260 262 261 262 263 263 261 257 253 251 250 252 256 261 264 259 251 245 240 236 235 236 239 241 243 244 245 246 249 252 256 259
304 303 304 306 306 305 306 304 298 294 299 298 290 287 287 286 287 287 285 276 256 242 239 239 239 244 246 243 235 233 237 237 237 240 242 242 243 240 234 233 237 242 244 246 248 250 252 252 253 255 256 257 257 259 261 262 264 266 265 264 261 257 253 251 251 253 257 261 260 256 249 244 240 237 237 239 241 245 248 249 250 252 254 257 261
306 305 306 308 308 307 305 307 304 294 291 296 293 286 284 282 283 284 281 273 257 245 243 242 243 247 244 233 229 233 237 236 236 240 242 243 243 240 235 234 237 241 243 244 246 249 252 253 254 255 256 257 257 257 260 262 266 268 267 266 264 260 256 252 251 251 254 257 259 258 253 248 243 240 238 239 241 245 249 252 253 254 256 259 262
307 306 307 307 307 307 304 303 305 297 287 289 290 284 281 280 278 276 273 268 256 246 246 246 246 246 240 230 232 237 238 238 239 241 242 242 243 243 240 235 236 243 246 246 247 249 251 253 255 256 256 257 256 254 257 262 265 266 267 267 265 262 258 255 252 251 252 255 257 258 256 252 247 243 241 239 240 243 247 251 254 256 259 261 264
308 308 307 307 305 304 302 300 301 299 289 283 282 281 279 277 273 270 268 264 256 248 248 249 247 246 242 238 239 239 239 241 243 242 241 241 242 243 242 237 236 243 246 247 248 249 251 254 255 255 255 256 256 253 256 262 264 264 266 267 266 264 261 257 254 252 252 253 256 257 256 254 249 246 243 241 241 243 245 249 252 256 259 262 265
309 310 310 309 306 302 300 298 296 297 291 282 277 276 276 274 269 265 264 262 257 253 252 250 248 245 242 241 242 241 241 243 245 242 239 239 241 241 240 239 238 242 245 246 248 249 249 251 252 252 253 255 257 255 257 262 263 263 265 266 266 265 262 260 257 254 253 253 254 255 256 255 252 248 245 243 242 243 245 248 251 254 257 260 263
309 312 313 313 308 304 300 297 296 295 290 283 277 274 272 272 267 261 260 260 258 255 253 249 246 244 242 242 243 242 242 243 243 241 238 240 241 239 240 238 234 238 244 245 247 248 247 248 249 251 252 255 260 260 260 262 262 262 263 264 266 266 264 262 259 256 255 254 254 254 255 255 253 250 247 244 243 243 245 248 251 254 256 259 263
309 312 315 316 313 308 302 298 297 293 287 281 276 272 271 271 268 263 259 257 258 257 254 250 245 243 244 245 244 243 242 241 241 242 243 243 240 238 241 238 232 235 243 245 246 247 246 246 249 250 250 254 261 263 260 260 262 263 263 264 267 268 266 263 260 257 256 256 255 255 254 254 254 251 248 246 245 245 246 248 251 254 257 259 263
308 310 313 315 315 312 306 301 298 293 287 281 272 268 269 269 267 265 260 255 255 257 256 252 248 247 246 246 246 244 242 241 243 248 249 246 239 236 238 240 237 238 245 247 246 247 244 243 246 250 250 254 262 265 261 259 262 264 264 265 267 269 268 265 261 259 258 257 257 255 254 254 254 253 250 247 247 247 248 250 252 254 257 260 263
306 307 309 312 315 314 311 306 301 296 291 285 275 266 264 264 264 263 260 254 252 254 255 253 251 249 246 245 246 246 245 245 247 251 251 246 240 235 236 239 238 239 247 249 246 246 243 241 244 247 250 256 262 264 262 261 264 265 264 264 266 268 269 268 264 261 260 259 258 257 255 255 255 254 252 249 248 248 249 251 253 255 258 260 264
304 305 306 309 312 314 313 310 306 301 295 288 283 273 263 262 263 262 259 255 253 252 251 251 251 248 246 246 246 246 247 247 247 249 250 246 241 236 236 237 234 236 244 247 246 246 243 242 245 248 253 259 263 266 266 264 265 265 263 263 266 268 269 270 269 266 263 261 260 259 258 256 256 255 255 253 251 251 251 252 254 256 259 262 266
302 303 304 306 308 311 312 312 309 306 300 291 284 277 268 264 265 263 260 258 254 250 248 249 249 248 247 246 246 247 249 249 247 246 247 245 240 236 236 235 231 234 242 245 245 246 242 242 248 253 258 262 267 270 268 264 263 264 263 261 263 267 269 269 271 270 267 264 263 261 259 258 258 257 257 256 254 253 253 254 256 258 261 263 266
301 302 303 305 307 307 309 310 310 309 305 294 283 274 268 268 267 262 258 258 255 249 246 248 249 248 247 246 247 249 249 249 247 244 243 244 241 238 237 234 230 234 241 243 242 243 243 243 249 257 261 263 265 264 259 258 260 263 264 261 260 265 267 267 269 269 267 266 264 263 261 260 259 259 258 257 256 255 255 256 257 259 261 264 266
299 301 302 303 305 305 305 306 308 309 306 298 287 275 268 268 270 264 256 255 255 250 245 247 248 247 247 247 247 249 250 250 247 242 243 245 244 240 237 234 231 234 239 242 241 240 241 242 246 252 258 259 260 258 256 256 258 260 265 264 261 262 263 263 264 265 267 267 265 264 263 262 261 260 259 259 258 257 257 258 259 261 262 264 266
298 299 300 301 302 303 303 303 303 305 305 301 294 284 274 269 270 267 259 255 254 250 246 249 248 245 244 246 247 248 251 250 245 241 245 249 246 239 234 233 232 233 236 239 240 238 238 240 241 244 247 249 251 254 254 252 253 258 263 263 261 260 260 262 262 262 265 267 266 265 264 263 262 262 261 261 260 259 260 260 261 262 263 264 265
297 297 298 298 298 299 300 300 299 300 301 300 298 293 286 276 271 269 264 259 255 250 248 252 252 247 245 245 245 247 248 249 246 243 245 250 247 240 235 233 232 233 235 237 238 237 236 237 240 242 245 246 246 249 250 250 254 257 257 258 260 261 260 262 262 261 262 265 265 264 264 263 262 263 263 263 262 262 263 263 263 262 263 264 266
295 296 296 297 297 296 296 296 295 296 297 297 296 294 292 286 278 271 266 262 258 254 251 252 254 253 251 249 247 246 247 248 247 245 247 250 250 244 240 236 233 234 236 237 236 235 234 238 243 247 249 248 247 249 251 252 255 256 255 256 260 261 260 260 261 260 261 264 264 263 262 263 263 263 264 263 263 264 265 264 263 263 264 265 267
292 293 294 295 295 294 293 292 292 292 292 293 293 292 292 291 286 279 271 266 262 258 254 253 255 256 253 250 248 247 247 249 249 249 250 252 251 247 243 239 236 236 237 237 238 237 236 240 247 250 251 250 249 249 248 244 246 252 257 259 259 260 261 260 261 261 261 263 264 264 263 263 264 264 263 264 265 266 265 265 265 266 267 268 269
291 291 292 292 292 292 290 289 288 288 288 288 288 288 289 289 289 287 282 276 271 265 259 257 259 258 253 250 248 246 246 247 248 249 252 254 251 247 244 242 240 239 236 236 239 240 238 240 245 249 251 249 248 250 251 247 247 254 259 261 260 261 261 260 260 261 261 262 263 264 264 264 263 263 263 264 266 267 266 267 269 269 269 270 271
289 290 290 290 290 289 288 286 285 286 286 284 283 283 284 285 286 287 286 284 279 274 269 266 266 264 258 253 250 248 247 248 247 245 248 251 249 245 246 246 243 238 235 236 238 238 237 239 243 248 249 247 248 252 252 250 252 256 258 260 260 258 258 260 260 261 263 263 262 262 264 264 263 264 266 267 268 268 269 271 272 272 271 271 271
286 287 288 288 288 288 287 285 284 283 284 283 280 279 280 280 281 282 284 284 282 280 279 275 271 267 263 259 255 250 248 250 250 246 244 247 247 244 245 247 244 239 238 240 240 237 238 240 244 247 248 249 250 249 246 247 252 255 258 261 261 260 260 260 259 259 260 262 263 265 264 262 262 265 268 269 268 268 271 273 275 275 274 272 271
283 283 284 284 284 284 285 285 284 282 282 281 279 277 277 277 277 278 279 280 280 280 280 278 274 268 262 262 261 255 250 250 252 250 247 247 248 245 242 242 242 238 237 239 239 237 239 242 244 246 248 249 248 243 242 246 251 253 256 260 264 265 263 261 260 262 262 262 264 265 264 264 265 266 267 267 268 269 272 273 272 273 275 275 275
281 280 281 281 280 279 280 282 283 282 281 280 279 276 275 274 275 275 276 276 276 277 276 275 276 272 266 265 264 258 253 250 249 252 253 251 250 249 243 239 238 236 235 235 236 238 241 244 245 245 246 246 245 244 247 252 254 253 253 255 258 259 258 259 263 266 265 265 264 262 263 266 268 267 266 268 269 271 271 269 268 270 275 278 277
279 278 278 278 278 277 275 276 279 280 280 279 278 276 274 273 272 273 273 273 273 274 273 273 274 273 270 269 268 263 257 252 248 251 255 256 257 255 248 240 239 239 238 237 238 241 243 244 246 248 248 248 248 249 252 253 252 251 249 249 249 247 249 255 261 265 267 269 268 265 265 266 267 267 267 268 271 272 270 268 269 271 275 276 275
279 278 277 277 277 276 274 273 274 276 277 276 276 276 274 273 272 271 271 271 271 271 271 272 272 271 269 269 270 267 262 258 255 255 256 257 259 257 249 242 240 240 240 241 242 243 245 246 246 245 247 250 252 252 253 253 251 249 248 247 246 245 248 254 259 263 266 268 268 267 267 266 265 267 269 269 270 269 268 268 269 271 272 273 273
280 279 278 278 277 276 275 273 271 271 272 273 274 274 274 272 271 270 270 269 268 268 268 269 271 270 269 268 268 266 264 262 260 258 258 259 259 253 245 240 237 238 242 245 244 245 247 248 245 240 239 242 244 245 248 250 251 250 249 248 246 245 247 251 256 260 262 265 266 267 266 266 266 268 269 269 268 268 267 268 269 270 271 272 273
Height
5836 5836 5835 5836 5836 5835 5834 5834 5833 5833 5832 5831 5830 5829 5829 5830 5830 5830 5830 5830 5830 5830 5830 5830 5830 5830 5829 5828 5827 5827 5827 5827 5828 5829 5827 5826 5827 5828 5828 5827 5827 5827 5826 5826 5825 5824 5824 5823 5823 5822 5821 5820 5819 5819 5819 5819 5818 5818 5818 5817 5817 5817 5817 5817 5817 5816 5816 5816 5816 5816 5815 5815 5815 5814 5814 5814 5814 5814 5814 5814 5814 5814 5814 5814 5814
5835 5834 5834 5834 5834 5834 5833 5832 5831 5831 5830 5830 5829 5829 5828 5829 5829 5829 5829 5829 5828 5828 5828 5829 5829 5829 5828 5828 5827 5826 5826 5826 5826 5828 5828 5825 5825 5826 5826 5826 5826 5826 5825 5825 5824 5823 5822 5822 5821 5821 5820 5819 5818 5818 5818 5818 5817 5817 5817 5817 5817 5817 5816 5816 5816 5816 5816 5816 5815 5815 5815 5815 5814 5814 5814 5814 5814 5813 5813 5813 5814 5814 5814 5814 5814
5833 5833 5832 5832 5832 5832 5831 5831 5830 5829 5828 5828 5828 5828 5828 5828 5828 5828 5828 5827 5827 5827 5827 5827 5828 5828 5828 5827 5826 5825 5825 5825 5824 5826 5827 5826 5825 5825 5825 5825 5825 5825 5825 5824 5823 5823 5822 5821 5820 5820 5819 5818 5818 5817 5817 5817 5817 5817 5816 5816 5816 5816 5816 5816 5815 5815 5815 5815 5815 5815 5814 5814 5814 5814 5814 5813 5813 5813 5813 5813 5814 5814 5814 5814 5815
5832 5831 5830 5830 5829 5830 5830 5829 5828 5827 5827 5826 5826 5826 5826 5826 5826 5826 5826 5826 5826 5826 5826 5826 5826 5826 5826 5825 5825 5824 5823 5823 5823 5824 5825 5825 5824 5824 5824 5824 5824 5824 5824 5823 5822 5822 5821 5820 5820 5819 5818 5818 5817 5816 5816 5816 5816 5816 5816 5816 5816 5815 5815 5815 5815 5815 5814 5814 5814 5814 5814 5814 5813 5813 5813 5813 5813 5813 5813 5814 5814 5814 5814 5815 5815
5829 5828 5827 5827 5827 5827 5827 5828 5827 5826 5826 5825 5825 5825 5824 5825 5825 5825 5825 5824 5824 5824 5824 5824 5824 5824 5824 5824 5823 5823 5822 5822 5822 5822 5823 5824 5824 5823 5823 5823 5823 5823 5822 5822 5821 5821 5820 5819 5819 5818 5818 5817 5816 5816 5815 5815 5815 5815 5815 5815 5815 5815 5815 5814 5814 5814 5814 5814 5814 5814 5814 5813 5813 5813 5813 5813 5813 5813 5814 5814 5814 5814 5815 5815 5815
5824 5824 5824 5824 5824 5824 5825 5826 5826 5825 5825 5824 5823 5823 5823 5823 5824 5824 5824 5824 5823 5823 5823 5823 5823 5823 5822 5822 5822 5821 5820 5820 5820 5820 5820 5821 5822 5822 5822 5821 5821 5822 5821 5821 5820 5820 5819 5818 5818 5818 5817 5816 5816 5815 5815 5815 5815 5815 5815 5815 5814 5814 5814 5814 5814 5814 5814 5814 5814 5814 5814 5813 5813 5813 5813 5813 5814 5814 5814 5814 5814 5815 5815 5815 5816
5821 5822 5822 5821 5821 5822 5823 5824 5824 5824 5824 5822 5821 5821 5820 5820 5821 5822 5822 5823 5822 5822 5822 5822 5821 5821 5821 5820 5820 5820 5819 5819 5819 5819 5819 5819 5820 5821 5821 5820 5820 5820 5820 5820 5819 5819 5818 5818 5817 5817 5816 5816 5815 5815 5814 5814 5814 5814 5814 5814 5814 5814 5814 5814 5813 5813 5813 5814 5814 5814 5814 5813 5813 5813 5813 5813 5814 5814 5814 5814 5815 5815 5815 5816 5816
5820 5821 5822 5821 5820 5820 5821 5821 5822 5822 5821 5820 5819 5819 5818 5817 5818 5819 5820 5820 5819 5820 5820 5819 5820 5819 5819 5819 5819 5818 5818 5818 5818 5818 5818 5818 5818 5819 5820 5819 5819 5819 5819 5818 5818 5818 5817 5817 5816 5816 5816 5815 5814 5814 5814 5814 5814 5814 5814 5814 5814 5814 5813 5813 5813 5813 5813 5813 5813 5814 5813 5813 5813 5813 5814 5814 5814 5814 5814 5815 5815 5815 5816 5816 5817
5820 5820 5819 5819 5819 5818 5818 5818 5819 5819 5819 5818 5817 5817 5817 5816 5816 5817 5817 5817 5817 5817 5817 5817 5818 5817 5817 5817 5817 5817 5817 5817 5817 5817 5817 5817 5817 5817 5818 5818 5818 5818 5817 5817 5817 5817 5816 5816 5816 5815 5815 5814 5814 5813 5813 5813 5813 5813 5814 5814 5814 5814 5813 5813 5813 5813 5813 5813 5813 5813 5813 5813 5813 5814 5814 5814 5814 5815 5815 5815 5815 5816 5816 5816 5817
5819 5818 5816 5816 5816 5815 5815 5815 5816 5816 5817 5816 5815 5814 5814 5814 5814 5814 5814 5814 5814 5814 5814 5814 5815 5815 5815 5815 5815 5815 5816 5816 5816 5816 5816 5816 5815 5816 5816 5817 5817 5817 5817 5816 5816 5816 5816 5815 5815 5814 5814 5814 5813 5813 5813 5813 5813 5813 5813 5813 5814 5813 5813 5813 5813 5813 5813 5813 5813 5813 5813 5813 5814 5814 5814 5814 5814 5815 5815 5815 5815 5816 5816 5817 5817
5818 5817 5815 5815 5814 5814 5813 5812 5813 5814 5814 5814 5813 5812 5812 5811 5811 5811 5811 5811 5811 5812 5812 5812 5813 5813 5813 5813 5814 5814 5814 5815 5814 5814 5814 5814 5814 5814 5815 5815 5816 5816 5816 5816 5815 5815 5815 5814 5814 5814 5813 5813 5813 5812 5812 5813 5813 5813 5813 5813 5813 5813 5813 5813 5813 5813 5813 5813 5813 5813 5813 5814 5814 5814 5814 5814 5815 5815 5815 5815 5816 5816 5816 5816 5817
5817 5816 5815 5814 5814 5813 5812 5811 5811 5812 5812 5812 5812 5811 5810 5809 5809 5809 5808 5808 5808 5810 5810 5809 5809 5810 5811 5812 5812 5812 5813 5813 5813 5813 5813 5813 5813 5813 5813 5814 5814 5814 5814 5814 5814 5814 5814 5813 5813 5813 5813 5813 5812 5812 5812 5812 5813 5813 5813 5813 5813 5813 5813 5812 5812 5813 5813 5813 5813 5813 5813 5814 5814 5814 5814 5814 5815 5815 5815 5815 5815 5816 5816 5816 5817
5817 5816 5814 5813 5813 5812 5811 5811 5810 5810 5809 5809 5809 5809 5809 5807 5807 5807 5807 5807 5806 5806 5807 5807 5807 5808 5809 5810 5811 5811 5811 5811 5811 5811 5811 5811 5812 5812 5812 5812 5812 5813 5813 5813 5812 5812 5812 5812 5812 5812 5812 5812 5812 5812 5812 5812 5812 5812 5813 5812 5812 5812 5812 5812 5812 5812 5812 5812 5812 5813 5813 5813 5813 5814 5814 5814 5814 5815 5815 5815 5815 5815 5816 5816 5816
5815 5815 5813 5812 5811 5811 5810 5810 5809 5808 5807 5807 5806 5806 5806 5805 5804 5804 5804 5805 5804 5803 5804 5805 5805 5806 5807 5808 5808 5809 5810 5810 5809 5809 5809 5809 5809 5810 5810 5810 5811 5811 5811 5811 5811 5811 5811 5811 5811 5811 5811 5811 5811 5811 5811 5811 5811 5812 5812 5812 5812 5812 5812 5812 5812 5812 5812 5812 5812 5812 5813 5813 5813 5813 5813 5814 5814 5814 5814 5814 5815 5815 5815 5816 5816
5814 5813 5812 5811 5810 5809 5808 5808 5807 5806 5805 5804 5804 5804 5803 5802 5801 5801 5801 5802 5801 5799 5800 5802 5802 5803 5804 5805 5805 5806 5808 5808 5807 5807 5807 5807 5807 5808 5808 5808 5809 5809 5809 5809 5809 5809 5809 5809 5810 5810 5810 5810 5810 5810 5810 5810 5810 5811 5811 5811 5812 5812 5811 5811 5811 5811 5811 5812 5812 5812 5812 5812 5813 5813 5813 5813 5813 5814 5814 5814 5814 5814 5814 5815 5815
5812 5811 5810 5808 5808 5807 5806 5805 5804 5803 5802 5802 5801 5801 5800 5800 5799 5797 5797 5798 5797 5796 5796 5798 5799 5799 5800 5801 5802 5804 5806 5806 5805 5805 5805 5805 5805 5806 5806 5806 5807 5808 5808 5808 5807 5807 5807 5807 5808 5808 5808 5809 5809 5809 5809 5810 5810 5810 5810 5811 5811 5811 5811 5811 5811 5811 5811 5811 5811 5812 5812 5812 5812 5812 5813 5813 5813 5813 5813 5813 5813 5814 5814 5814 5815
5809 5808 5807 5806 5805 5805 5804 5802 5801 5801 5800 5799 5798 5798 5797 5796 5796 5795 5794 5794 5794 5793 5793 5795 5796 5796 5798 5799 5800 5801 5803 5804 5804 5804 5803 5803 5803 5804 5804 5805 5805 5806 5806 5806 5806 5805 5805 5805 5806 5806 5807 5807 5808 5808 5808 5808 5809 5809 5809 5810 5810 5810 5810 5810 5811 5811 5811 5811 5811 5811 5811 5811 5812 5812 5812 5812 5813 5813 5813 5813 5813 5813 5814 5814 5814
5805 5804 5804 5803 5802 5801 5801 5800 5798 5797 5796 5796 5795 5795 5793 5793 5792 5791 5790 5790 5790 5790 5791 5792 5793 5794 5796 5797 5798 5799 5800 5801 5802 5802 5802 5801 5801 5802 5802 5803 5803 5804 5804 5804 5804 5804 5804 5804 5804 5805 5805 5806 5806 5807 5807 5807 5808 5808 5808 5808 5809 5809 5809 5810 5810 5810 5810 5810 5810 5810 5811 5811 5811 5811 5811 5812 5812 5812 5813 5813 5813 5813 5813 5814 5814
5801 5800 5800 5799 5798 5797 5797 5796 5795 5794 5793 5792 5792 5791 5791 5790 5789 5788 5786 5785 5786 5787 5788 5788 5790 5792 5794 5794 5795 5796 5797 5798 5799 5800 5800 5800 5800 5800 5800 5801 5801 5802 5802 5803 5802 5802 5802 5802 5803 5803 5804 5805 5805 5805 5806 5806 5806 5807 5807 5807 5807 5808 5808 5809 5809 5809 5809 5809 5809 5809 5810 5810 5810 5811 5811 5811 5812 5812 5812 5812 5813 5813 5813 5814 5814
5798 5797 5796 5795 5794 5793 5792 5792 5791 5790 5790 5789 5789 5788 5788 5787 5786 5784 5781 5780 5781 5783 5784 5785 5787 5788 5789 5791 5793 5794 5794 5795 5796 5797 5798 5798 5798 5798 5798 5798 5799 5800 5801 5801 5801 5801 5801 5801 5801 5802 5802 5803 5804 5804 5805 5805 5805 5805 5806 5806 5806 5807 5807 5808 5808 5808 5808 5808 5808 5808 5809 5809 5810 5810 5810 5810 5811 5811 5811 5812 5812 5812 5813 5813 5814
5795 5793 5792 5792 5791 5790 5788 5787 5787 5786 5786 5786 5786 5785 5784 5784 5782 5780 5779 5777 5778 5779 5780 5782 5784 5785 5786 5788 5790 5790 5792 5793 5794 5795 5795 5795 5796 5796 5796 5796 5797 5798 5798 5799 5799 5799 5799 5799 5800 5800 5801 5802 5802 5803 5803 5803 5804 5804 5804 5804 5805 5805 5806 5806 5807 5807 5807 5807 5807 5807 5807 5808 5808 5809 5809 5810 5810 5810 5811 5811 5811 5812 5812 5813 5813
5791 5789 5789 5788 5788 5787 5785 5784 5782 5782 5782 5782 5782 5782 5781 5780 5779 5778 5777 5775 5775 5776 5777 5778 5781 5783 5784 5784 5786 5787 5789 5790 5791 5792 5793 5793 5794 5794 5794 5794 5795 5795 5796 5797 5797 5797 5797 5798 5798 5798 5799 5800 5801 5801 5801 5802 5802 5802 5803 5803 5803 5803 5804 5805 5805 5805 5806 5806 5806 5806 5806 5807 5807 5808 5808 5809 5809 5810 5810 5810 5811 5811 5812 5812 5813
5788 5787 5785 5784 5785 5784 5783 5780 5778 5778 5779 5779 5779 5779 5778 5777 5776 5775 5774 5773 5772 5773 5774 5775 5778 5780 5781 5781 5782 5784 5785 5787 5788 5790 5790 5791 5791 5792 5792 5792 5793 5793 5794 5795 5795 5795 5795 5796 5796 5797 5797 5798 5799 5799 5799 5800 5800 5801 5801 5801 5802 5802 5802 5803 5803 5804 5804 5804 5805 5805 5805 5805 5806 5806 5807 5807 5808 5809 5809 5809 5810 5810 5811 5811 5812
5786 5784 5782 5781 5781 5781 5779 5777 5775 5774 5775 5775 5775 5775 5775 5774 5773 5772 5771 5770 5770 5770 5772 5774 5775 5777 5778 5778 5779 5780 5782 5784 5785 5787 5788 5788 5789 5789 5789 5789 5790 5791 5792 5793 5793 5793 5793 5794 5795 5795 5796 5796 5797 5798 5797 5798 5798 5799 5799 5800 5800 5800 5801 5801 5802 5802 5802 5803 5803 5803 5804 5804 5804 5805 5805 5806 5807 5807 5808 5808 5809 5809 5810 5810 5811
5782 5781 5780 5778 5777 5777 5776 5774 5773 5772 5771 5772 5771 5771 5771 5771 5770 5769 5768 5767 5767 5768 5770 5771 5773 5774 5775 5775 5776 5778 5780 5781 5782 5784 5785 5786 5786 5787 5787 5786 5787 5789 5790 5790 5791 5791 5792 5792 5793 5794 5794 5795 5795 5796 5796 5796 5797 5797 5797 5798 5798 5799 5799 5799 5800 5800 5801 5801 5801 5802 5802 5802 5803 5803 5804 5804 5805 5806 5806 5807 5807 5808 5808 5809 5809
5779 5778 5776 5775 5773 5772 5772 5771 5770 5770 5769 5769 5768 5767 5767 5766 5766 5766 5765 5764 5763 5765 5767 5768 5770 5771 5771 5773 5774 5776 5777 5777 5778 5780 5782 5783 5784 5785 5785 5785 5786 5787 5787 5788 5789 5789 5789 5790 5790 5792 5792 5793 5793 5793 5794 5794 5795 5795 5795 5796 5796 5797 5797 5797 5798 5798 5799 5799 5799 5800 5800 5801 5801 5801 5802 5803 5803 5804 5804 5805 5805 5806 5806 5807 5807
5776 5774 5773 5772 5770 5769 5768 5767 5767 5767 5766 5766 5765 5765 5763 5762 5762 5762 5762 5761 5761 5762 5764 5765 5766 5767 5767 5769 5771 5773 5775 5775 5775 5777 5779 5780 5781 5782 5782 5782 5784 5785 5784 5785 5786 5787 5787 5788 5788 5789 5790 5791 5791 5792 5791 5792 5793 5793 5793 5794 5794 5794 5795 5795 5796 5796 5797 5797 5797 5798 5798 5799 5799 5800 5800 5801 5801 5802 5802 5803 5804 5804 5804 5805 5805
5773 5772 5769 5768 5767 5766 5765 5763 5763 5763 5763 5763 5762 5761 5760 5759 5759 5760 5760 5759 5759 5760 5761 5762 5763 5763 5764 5765 5767 5770 5772 5773 5773 5775 5776 5777 5778 5779 5779 5779 5781 5782 5782 5783 5784 5784 5784 5785 5786 5787 5787 5788 5789 5790 5789 5789 5790 5791 5791 5791 5791 5792 5792 5793 5793 5794 5794 5795 5795 5795 5796 5797 5797 5798 5798 5799 5799 5800 5800 5801 5801 5802 5802 5803 5803
5770 5769 5767 5765 5763 5763 5762 5760 5759 5759 5759 5759 5758 5757 5757 5756 5756 5757 5757 5757 5757 5758 5758 5758 5760 5761 5761 5762 5764 5766 5767 5769 5771 5772 5773 5774 5775 5776 5777 5777 5777 5779 5779 5780 5781 5781 5782 5783 5783 5784 5785 5785 5787 5788 5787 5787 5788 5788 5788 5788 5789 5789 5789 5790 5790 5791 5792 5792 5793 5793 5794 5794 5795 5796 5796 5796 5797 5797 5798 5798 5799 5799 5800 5800 5801
5767 5766 5764 5762 5760 5759 5758 5757 5756 5755 5755 5755 5754 5753 5753 5753 5753 5754 5754 5754 5754 5755 5755 5756 5757 5758 5759 5760 5761 5762 5764 5766 5767 5768 5769 5770 5772 5773 5773 5774 5775 5776 5777 5777 5778 5778 5779 5780 5781 5782 5782 5782 5784 5785 5784 5784 5785 5786 5785 5785 5786 5786 5786 5787 5787 5788 5789 5789 5790 5791 5791 5792 5792 5793 5794 5794 5794 5795 5795 5795 5796 5796 5797 5797 5798
5764 5763 5761 5759 5757 5755 5754 5753 5753 5752 5751 5750 5750 5750 5749 5749 5750 5750 5750 5750 5751 5751 5752 5753 5754 5755 5756 5757 5758 5759 5762 5763 5763 5764 5766 5767 5768 5769 5770 5771 5772 5773 5773 5774 5775 5776 5777 5777 5778 5779 5779 5779 5780 5781 5781 5781 5782 5783 5782 5782 5782 5783 5783 5783 5784 5785 5785 5786 5787 5788 5788 5789 5790 5790 5791 5792 5792 5792 5793 5793 5793 5793 5794 5794 5795
5762 5760 5758 5757 5754 5752 5751 5749 5749 5749 5747 5747 5747 5747 5747 5746 5745 5745 5745 5746 5748 5748 5748 5749 5750 5751 5752 5753 5754 5756 5758 5759 5760 5761 5762 5763 5763 5765 5767 5768 5768 5769 5770 5771 5772 5773 5773 5774 5775 5776 5776 5777 5777 5778 5778 5778 5778 5779 5780 5779 5779 5780 5780 5780 5781 5782 5782 5783 5784 5785 5786 5786 5787 5787 5788 5789 5789 5790 5790 5790 5790 5791 5791 5791 5792
5759 5757 5755 5754 5752 5750 5748 5746 5746 5745 5744 5743 5743 5742 5743 5743 5743 5742 5742 5742 5743 5744 5744 5745 5746 5747 5748 5749 5751 5752 5754 5755 5756 5757 5758 5758 5759 5762 5763 5763 5764 5765 5767 5768 5768 5769 5770 5771 5772 5773 5773 5774 5774 5775 5776 5775 5775 5776 5777 5776 5776 5777 5777 5778 5778 5778 5779 5780 5781 5782 5782 5783 5784 5784 5785 5786 5786 5787 5787 5788 5788 5788 5788 5789 5789
5756 5754 5753 5751 5749 5747 5745 5743 5742 5742 5740 5739 5738 5737 5738 5739 5740 5739 5739 5739 5739 5740 5740 5741 5742 5743 5744 5745 5746 5747 5749 5750 5752 5753 5754 5753 5755 5757 5758 5759 5761 5762 5762 5764 5765 5765 5766 5767 5769 5770 5770 5771 5771 5772 5773 5772 5771 5773 5774 5773 5773 5774 5774 5775 5775 5775 5776 5777 5777 5778 5779 5780 5780 5781 5782 5782 5783 5784 5784 5785 5785 5785 5786 5786 5786
5753 5751 5749 5748 5747 5744 5742 5740 5738 5737 5736 5734 5734 5733 5733 5734 5735 5735 5736 5736 5735 5735 5736 5737 5737 5738 5739 5740 5742 5743 5744 5746 5748 5749 5749 5749 5751 5754 5755 5756 5757 5758 5758 5759 5761 5762 5762 5764 5765 5766 5767 5768 5768 5769 5769 5769 5768 5769 5771 5770 5770 5771 5772 5772 5772 5773 5773 5774 5774 5775 5776 5776 5777 5778 5778 5779 5779 5780 5781 5781 5782 5782 5782 5783 5783
5750 5748 5746 5745 5744 5742 5739 5737 5734 5733 5731 5731 5731 5731 5731 5731 5731 5731 5732 5733 5732 5732 5732 5733 5733 5734 5735 5737 5738 5738 5739 5741 5743 5744 5744 5744 5746 5749 5750 5751 5753 5754 5756 5756 5757 5758 5759 5761 5762 5763 5764 5764 5765 5765 5766 5765 5765 5766 5768 5767 5767 5768 5769 5769 5769 5770 5770 5771 5771 5772 5773 5773 5774 5774 5775 5775 5776 5777 5777 5778 5778 5779 5779 5779 5779
5747 5745 5744 5742 5741 5739 5737 5734 5732 5729 5728 5728 5728 5728 5728 5728 5728 5728 5729 5729 5729 5729 5729 5729 5730 5731 5732 5733 5734 5734 5735 5736 5738 5739 5740 5740 5741 5744 5745 5747 5749 5751 5753 5753 5753 5754 5756 5758 5759 5760 5760 5761 5762 5762 5761 5761 5761 5762 5764 5764 5764 5765 5766 5766 5767 5767 5767 5768 5768 5769 5769 5770 5770 5771 5771 5772 5772 5773 5774 5774 5775 5775 5775 5775 5775
5743 5742 5740 5739 5738 5736 5734 5732 5730 5727 5726 5724 5724 5725 5725 5724 5724 5724 5724 5725 5726 5726 5726 5726 5726 5727 5728 5729 5730 5731 5731 5732 5733 5735 5735 5735 5736 5738 5740 5743 5746 5747 5748 5749 5750 5751 5752 5754 5755 5756 5757 5757 5759 5759 5758 5758 5758 5758 5760 5761 5761 5761 5762 5763 5764 5764 5764 5765 5765 5765 5766 5766 5767 5767 5768 5768 5769 5769 5770 5771 5771 5771 5771 5771 5771
5739 5738 5737 5736 5734 5733 5731 5729 5728 5726 5723 5721 5721 5721 5721 5719 5719 5719 5719 5719 5721 5721 5722 5722 5722 5723 5724 5724 5726 5726 5727 5728 5729 5730 5731 5731 5732 5734 5736 5739 5742 5743 5744 5745 5746 5747 5749 5751 5751 5752 5753 5753 5754 5755 5755 5755 5755 5755 5756 5757 5758 5758 5758 5760 5761 5761 5760 5761 5762 5762 5762 5763 5763 5763 5764 5764 5765 5765 5766 5767 5767 5767 5767 5767 5767
5735 5734 5733 5732 5731 5730 5728 5726 5725 5723 5721 5719 5718 5717 5716 5715 5714 5714 5714 5714 5715 5717 5718 5718 5718 5719 5719 5720 5721 5722 5723 5723 5724 5725 5726 5727 5729 5730 5730 5732 5735 5737 5738 5740 5741 5743 5745 5747 5747 5747 5748 5749 5749 5751 5752 5752 5751 5752 5754 5754 5753 5754 5755 5756 5757 5758 5757 5757 5758 5759 5759 5759 5759 5759 5760 5761 5761 5762 5763 5764 5763 5763 5763 5763 5763
5731 5730 5729 5728 5727 5726 5724 5722 5721 5720 5718 5717 5715 5713 5712 5711 5711 5711 5711 5710 5711 5712 5713 5714 5714 5714 5715 5715 5716 5718 5719 5719 5720 5720 5721 5722 5723 5725 5725 5726 5729 5731 5733 5734 5736 5738 5740 5741 5741 5743 5744 5744 5745 5746 5747 5748 5748 5749 5750 5750 5749 5750 5751 5752 5753 5754 5754 5753 5754 5755 5755 5755 5755 5755 5756 5757 5757 5758 5760 5760 5759 5758 5758 5758 5758
5726 5725 5724 5723 5722 5722 5720 5719 5717 5716 5715 5713 5712 5710 5708 5707 5707 5707 5707 5707 5707 5708 5709 5709 5710 5710 5710 5711 5712 5714 5715 5715 5715 5715 5716 5716 5718 5719 5721 5722 5724 5726 5728 5729 5731 5733 5735 5735 5736 5738 5739 5740 5740 5741 5743 5745 5744 5744 5746 5747 5746 5746 5747 5748 5749 5750 5750 5750 5750 5750 5751 5751 5751 5751 5752 5752 5753 5755 5756 5754 5753 5753 5753 5753 5753
5722 5720 5719 5718 5717 5716 5716 5715 5713 5712 5711 5709 5708 5707 5705 5704 5704 5704 5703 5703 5703 5704 5705 5705 5706 5706 5706 5707 5708 5709 5709 5710 5710 5710 5711 5712 5713 5715 5716 5718 5719 5721 5723 5724 5726 5728 5730 5731 5732 5733 5734 5735 5736 5737 5739 5740 5739 5739 5741 5742 5742 5742 5743 5744 5745 5746 5747 5746 5746 5746 5747 5747 5747 5747 5747 5748 5749 5751 5751 5749 5748 5748 5748 5748 5749
5717 5716 5714 5713 5711 5711 5710 5710 5709 5707 5707 5705 5704 5703 5702 5701 5700 5700 5700 5699 5699 5700 5700 5700 5700 5701 5701 5702 5703 5704 5704 5705 5706 5707 5707 5708 5709 5710 5712 5713 5714 5716 5718 5720 5722 5724 5725 5727 5728 5729 5730 5731 5732 5732 5734 5735 5735 5736 5737 5738 5738 5738 5739 5740 5741 5742 5742 5743 5742 5742 5743 5743 5743 5743 5743 5744 5746 5746 5745 5744 5743 5743 5743 5743 5744
5712 5711 5710 5709 5707 5705 5705 5705 5704 5703 5702 5701 5700 5699 5699 5698 5697 5696 5696 5696 5696 5696 5696 5695 5695 5696 5697 5697 5697 5698 5699 5700 5701 5702 5704 5705 5704 5706 5708 5709 5710 5711 5712 5715 5718 5719 5720 5722 5724 5725 5725 5726 5727 5729 5729 5730 5730 5731 5732 5733 5734 5734 5734 5735 5737 5737 5738 5737 5738 5739 5739 5739 5738 5738 5739 5741 5742 5741 5740 5740 5739 5738 5738 5739 5738
5707 5706 5705 5704 5702 5701 5699 5699 5699 5698 5697 5696 5695 5694 5694 5694 5693 5693 5693 5693 5692 5692 5691 5691 5690 5692 5693 5692 5692 5693 5694 5695 5696 5698 5700 5701 5700 5701 5704 5704 5704 5706 5709 5711 5713 5715 5717 5718 5719 5720 5721 5722 5723 5724 5725 5725 5726 5727 5727 5728 5729 5729 5729 5730 5732 5733 5733 5732 5732 5734 5735 5734 5734 5735 5736 5736 5736 5735 5735 5735 5733 5732 5733 5733 5733
5702 5701 5699 5698 5698 5696 5694 5693 5693 5693 5692 5691 5690 5689 5689 5689 5688 5688 5688 5689 5688 5687 5687 5686 5686 5688 5689 5687 5687 5688 5689 5690 5692 5693 5694 5695 5695 5697 5699 5698 5698 5700 5703 5705 5707 5709 5711 5713 5714 5716 5716 5717 5718 5718 5719 5721 5722 5723 5724 5724 5724 5724 5725 5725 5726 5728 5728 5728 5729 5729 5728 5728 5730 5732 5732 5731 5731 5730 5731 5731 5729 5728 5727 5727 5727
5696 5695 5694 5693 5692 5691 5690 5688 5687 5687 5687 5686 5685 5684 5684 5683 5683 5683 5683 5684 5684 5683 5683 5682 5682 5683 5684 5683 5683 5683 5684 5685 5687 5687 5688 5689 5691 5692 5693 5693 5693 5694 5695 5697 5700 5703 5705 5707 5710 5711 5710 5711 5711 5712 5714 5716 5717 5718 5719 5719 5719 5721 5721 5720 5721 5722 5722 5723 5725 5724 5723 5723 5725 5725 5725 5725 5725 5726 5726 5726 5724 5723 5721 5720 5721
5690 5689 5688 5687 5686 5686 5685 5683 5682 5681 5681 5681 5680 5679 5679 5678 5678 5678 5678 5679 5679 5679 5678 5678 5679 5679 5679 5678 5678 5679 5680 5680 5681 5682 5683 5684 5685 5686 5686 5688 5689 5690 5690 5692 5694 5696 5699 5702 5705 5706 5705 5705 5706 5707 5709 5711 5712 5713 5714 5714 5716 5718 5718 5717 5716 5717 5717 5718 5719 5719 5718 5719 5719 5718 5719 5720 5720 5720 5720 5719 5719 5717 5716 5715 5715
5683 5682 5681 5681 5680 5679 5678 5678 5677 5676 5676 5675 5675 5674 5673 5673 5673 5673 5673 5673 5673 5674 5674 5674 5674 5674 5674 5673 5674 5675 5676 5676 5677 5678 5678 5679 5680 5680 5681 5684 5685 5685 5685 5687 5689 5691 5694 5697 5701 5702 5701 5700 5701 5703 5704 5705 5706 5707 5709 5710 5712 5713 5714 5713 5713 5713 5713 5713 5713 5714 5713 5713 5714 5713 5713 5714 5715 5715 5714 5713 5713 5711 5710 5710 5711
5676 5675 5674 5673 5672 5672 5671 5671 5670 5670 5670 5670 5669 5669 5668 5668 5668 5667 5668 5668 5668 5668 5669 5669 5669 5668 5668 5668 5669 5669 5671 5672 5672 5673 5673 5674 5675 5676 5677 5679 5680 5679 5681 5683 5685 5687 5689 5691 5694 5697 5696 5695 5696 5697 5698 5698 5700 5702 5703 5706 5707 5708 5708 5709 5708 5708 5708 5708 5708 5709 5708 5707 5708 5708 5707 5708 5710 5710 5708 5707 5707 5705 5705 5706 5706